Weather History for Glendale Luke AFB, AZ

Change the Weather History Date:

Monday, July 15, 2013

  Actual Average Record
Temperature  
Mean Temperature 96 °F -  
Max Temperature 108 °F 107 °F 118 °F (1998)
Min Temperature 85 °F 77 °F 63 °F (1944)
Cooling Degree Days 32    
Growing Degree Days 46 (Base 50)    
Moisture  
Dew Point 63 °F    
Average Humidity 33    
Maximum Humidity 56    
Minimum Humidity 20    
Precipitation  
Precipitation 0.00 in - - ()
Sea Level Pressure  
Sea Level Pressure 29.69 in    
Wind  
Wind Speed 8 mph (West)    
Max Wind Speed 18 mph    
Max Gust Speed 24 mph    
Visibility 10 miles    
Events Thunderstorm    
Averages and records for this station are not official NWS values.
T = Trace of Precipitation, MM = Missing Value Source: NWS Daily Summary

Daily Weather History Graph

Daily Weather History Graph

Search for Another Location

Airport:

Trip Planner

Search our weather history database for the weather conditions in past years. The results will help you decide how hot, cold, wet, or windy it might be!

Date:

Astronomy

Jul. 15, 2013 Rise Set
Actual Time 5:30 AM MST 7:40 PM MST
Civil Twilight 5:02 AM MST 8:08 PM MST
Nautical Twilight 4:27 AM MST 8:42 PM MST
Astronomical Twilight 3:50 AM MST 9:19 PM MST
Moon 12:29 PM MST (7/15) 11:54 PM MST (7/15)
Length of Visible Light 15h 05m
Length of Day
14h 09m
Waxing Crescent, 46% of the Moon is Illuminated
Jul 15
Waxing Crescent
Jul 15
First Quarter
Jul 22
Full
Jul 29
Last Quarter
Aug 6
New

Hourly Weather History & Observations

Time (MST) Temp. Heat Index Dew Point Humidity Pressure Visibility Wind Dir Wind Speed Gust Speed Precip Events Conditions
12:58 AM 89.2 °F 92.4 °F 67.5 °F 48% 29.71 in 10.0 mi SSW 6.9 mph - N/A   Clear
1:58 AM 87.6 °F 91.1 °F 67.8 °F 52% 29.71 in 10.0 mi South 3.5 mph - N/A   Partly Cloudy
2:58 AM 86.9 °F 90.6 °F 68.2 °F 54% 29.71 in 10.0 mi ENE 1.2 mph - N/A   Mostly Cloudy
3:58 AM 87.8 °F 91.4 °F 68.4 °F 52% 29.71 in 10.0 mi Calm Calm - N/A   Mostly Cloudy
4:58 AM 85.6 °F 89.1 °F 68.5 °F 56% 29.71 in 10.0 mi West 3.5 mph - N/A   Mostly Cloudy
5:58 AM 86.9 °F 89.9 °F 67.3 °F 52% 29.72 in 10.0 mi SW 3.5 mph - N/A   Scattered Clouds
6:58 AM 90.0 °F 91.7 °F 64.6 °F 43% 29.73 in 10.0 mi SSW 8.1 mph - N/A   Partly Cloudy
7:58 AM 93.2 °F 95.3 °F 64.6 °F 39% 29.74 in 10.0 mi SSW 9.2 mph - N/A   Clear
8:58 AM 95.5 °F 97.4 °F 64.2 °F 35% 29.75 in 10.0 mi South 9.2 mph - N/A   Clear
9:58 AM 97.2 °F 99.1 °F 63.5 °F 33% 29.74 in 10.0 mi Variable 2.3 mph - N/A   Partly Cloudy
10:58 AM 99.1 °F 102.0 °F 64.2 °F 32% 29.73 in 10.0 mi Variable 5.8 mph - N/A   Clear
11:58 AM 101.8 °F 104.3 °F 63.1 °F 28% 29.72 in 10.0 mi SW 4.6 mph - N/A   Clear
12:58 PM 103.5 °F 106.4 °F 63.1 °F 27% 29.69 in 10.0 mi SSE 9.2 mph - N/A   Clear
1:58 PM 105.8 °F 108.3 °F 61.5 °F 24% 29.66 in 10.0 mi SW 13.8 mph 20.7 mph N/A   Scattered Clouds
2:45 PM 107.6 °F 108.2 °F 59.0 °F 20% 29.68 in 10.0 mi WSW 13.8 mph - N/A   Clear
2:58 PM 107.2 °F 108.4 °F 59.7 °F 21% 29.63 in 10.0 mi WSW 16.1 mph 21.9 mph N/A   Scattered Clouds
3:58 PM 108.0 °F 109.5 °F 59.5 °F 21% 29.60 in 10.0 mi SSW 18.4 mph 21.9 mph N/A   Scattered Clouds
4:07 PM 107.6 °F 108.2 °F 59.0 °F 20% 29.66 in 10.0 mi West 15.0 mph - N/A   Scattered Clouds
4:09 PM 107.6 °F 108.2 °F 59.0 °F 20% 29.66 in 10.0 mi WNW 12.7 mph - N/A   Clear
4:10 PM 107.6 °F 108.2 °F 59.0 °F 20% 29.66 in 10.0 mi NW 12.7 mph - N/A   Clear
4:58 PM 101.8 °F 104.3 °F 63.3 °F 28% 29.61 in 10.0 mi NNW 13.8 mph - N/A   Mostly Cloudy
5:58 PM 100.4 °F 101.8 °F 62.2 °F 28% 29.61 in 10.0 mi North 12.7 mph - N/A   Mostly Cloudy
6:18 PM 100.4 °F 102.4 °F 62.6 °F 29% 29.66 in 10.0 mi North 18.4 mph - N/A   Mostly Cloudy
6:38 PM 100.4 °F 101.3 °F 60.8 °F 27% 29.66 in 10.0 mi North 16.1 mph 24.2 mph N/A   Mostly Cloudy
6:58 PM 99.3 °F 99.6 °F 59.4 °F 27% 29.62 in 10.0 mi North 16.1 mph - N/A   Mostly Cloudy
7:58 PM 97.5 °F 97.3 °F 58.8 °F 28% 29.69 in 10.0 mi NNW 10.4 mph - N/A   Mostly Cloudy
8:15 PM 95.0 °F 95.2 °F 60.8 °F 32% 29.70 in 10.0 mi NNW 6.9 mph - N/A Thunderstorm Thunderstorm
8:23 PM 96.8 °F 97.1 °F 60.8 °F 30% 29.70 in 10.0 mi WNW 5.8 mph - N/A   Mostly Cloudy
8:58 PM 97.0 °F 96.9 °F 60.1 °F 29% 29.67 in 10.0 mi West 6.9 mph - N/A   Mostly Cloudy
9:58 PM 93.9 °F 94.8 °F 62.1 °F 35% 29.70 in 10.0 mi WSW 4.6 mph - N/A   Mostly Cloudy
10:58 PM 93.7 °F 94.5 °F 62.1 °F 35% 29.69 in 10.0 mi NE 8.1 mph - N/A   Mostly Cloudy
11:58 PM 94.1 °F 93.1 °F 57.9 °F 30% 29.70 in 10.0 mi North 9.2 mph - N/A   Overcast